SSU 1

Satellite information

Favourite Embed

Satellite Type and Status

PAYLOADIN ORBIT

Key statistics

Satellite SSU 1 at a glance.

Uptime

17965

Days in orbit

Revolutions

≈ 13.8

Per day

Orbit

LEO

Low Earth Orbit

Inclination

63.4

Latest

Satellite identification and parameters

Extended collection of information and parameters for SSU 1.

Object identification

Identified? True

Debris? False

Object name: SSU 1

International designator: 1976-038C

Object number (NORAD): 8835

Object ID (CCSDS): 8835

Country: UNITED STATES OF AMERICA (US)

Current information (Y/N): Y

RCS size: LARGE

Orbital parameters

Period: 104.129 minutes

Inclination: 63.3567 deg

SMA: 7331.747 km

Apoapsis: 1261.267 km

Periapsis: 645.957 km

RAAN: 134.6081 deg

Eccentricy: 0.041962

Argument of periapsis: 175.4541 deg

Mean anomaly: 185.0513 deg

Mean motion: 13.82902535 rev/day

Mean motion (dot): -0.00000008 rev/day2

B* drag term: 0.000047672 1/REarth

Two-line elements (TLE)

Creation date: July 6, 2025, 6:05 p.m.

Reference frame: TEME

Reference center: EARTH

Epoch: July 6, 2025, 5:52 a.m. UTC

TLE line 0: 0 SSU 1

TLE line 1: 1 08835U 76038C 25187.24446745 -.00000008 00000-0 47672-4 0 9996

TLE line 2: 2 08835 63.3567 134.6081 0419620 175.4541 185.0513 13.82902535310979

Live tracking on map

Real-time ground track for satellite SSU 1.

In-orbit conjunctions

A list of the most updated potential collisions computed for object SSU 1.

Target Orbit TCA Probability of collision Miss distance Type
NOAA 16 DEB SSO 2025-06-26 02:14:04 0.0001289968 380.0 (m) DEBRIS
CZ-6A DEB SSO 2025-04-19 11:00:36 0.000714339 443.0 (m) DEBRIS
COSMOS 2251 DEB LEO 2025-04-10 17:00:26 0.0008650494 434.0 (m) DEBRIS
FENGYUN 1C DEB SSO 2025-03-25 22:40:43 0.002107934 318.0 (m) DEBRIS
SL-8 R/B LEO 2024-11-08 04:52:14 0.0001309876 834.0 (m) ROCKET BODY

Associated space launch

Parcae 1A, B and C were passive ELINT satellites. MSD 1 was a dispenser of triplets of ocean surveillance satellites.

SSU 1 was lifted into orbit during the mission ‘Atlas F/MSD | Parcae 1A,B,C & MSD 1’, on board a Atlas F/MSD space rocket.

The launch took place on April 30, 1976, 7:12 p.m. from Space Launch Complex 3W.

For more information about the launch, click the button.

Launch to space Atlas F/MSD | Parcae 1A,B,C & MSD 1
Atlas F/MSD | Parcae 1A,B,C & MSD 1

Agency: N/A

Status: Launch Successful

Launch date: April 30, 1976, 7:12 p.m. UTC

Rocket: Atlas F/MSD

Launch pad: Space Launch Complex 3W

Location: Vandenberg SFB, CA, USA

...

Latest news about this satellite

There are no fresh news available about this satellite. Check back as we update our databases every day.


Newsletter sign-up

Weekly statistics, charts and insights to help you stay on top of the space industry.